Hourly Data Report for October 02, 2017

All times are specified in Local Standard Time (LST). Add 1 hour to adjust for Daylight Saving Time where and when it is observed.

PARRSBORO
NOVA SCOTIA

45°24'48.000" N
64°20'49.000" W
30.90 m
8204402
71493
APR

Download Data

Hourly Data (October 2017)
Hourly Data Report for October 2, 2017
Temp Definition
°C
Dew Point Temp Definition
°C
Rel Hum Definition
%
Wind Dir Definition
10's deg

Wind Spd Definition
km/h
Visibility Definition
km
Stn Press Definition
kPa
Hmdx Definition


Wind Chill Definition


Weather Definition


TIME
00:00 4.5 3.8 95   0   101.59     LegendNANA
01:00 4.6 4.1 96   0   101.62     LegendNANA
02:00 6.5 6.0 97 26 5   101.58     LegendNANA
03:00 6.9 6.1 95 32 2   101.58     LegendNANA
04:00 10.6 5.7 72 34 10   101.63     LegendNANA
05:00 9.8 5.5 74 34 8   101.77     LegendNANA
06:00 8.5 5.4 81 7 2   101.87     LegendNANA
07:00 8.2 5.3 82 34 5   101.99     LegendNANA
08:00 10.1 5.5 73 35 15   102.07     LegendNANA
09:00 11.5 4.4 62 36 16   102.15     LegendNANA
10:00 11.5 4.5 62 35 17   102.23     LegendNANA
11:00 13.0 3.3 52 36 19   102.28     LegendNANA
12:00 12.7 2.5 50 35 20   102.34     LegendNANA
13:00 11.9 2.1 51 35 25   102.39     LegendNANA
14:00 10.7 2.4 57 36 19   102.45     LegendNANA
15:00 11.4 2.3 53 36 19   102.48     LegendNANA
16:00 10.9 2.8 57 1 14   102.54     LegendNANA
17:00 9.3 2.3 62 1 11   102.66     LegendNANA
18:00 7.8 1.6 65 1 9   102.77     LegendNANA
19:00 3.9 1.8 86 29 1   102.87     LegendNANA
20:00 2.3 1.2 92 29 5   102.93     LegendNANA
21:00 1.5 0.7 95 29 5   102.99     LegendNANA
22:00 0.5 -0.1 96 31 3   103.01     LegendNANA
23:00 0.1 -0.3 97   0   103.03     LegendNANA

Notes on Data Quality.

Legend

  • E = Estimated
  • M = Missing
  • NA = Not Available
  • ‡ = Partner data that is not subject to review by the National Climate Archives
Date modified: